Change the Weather History Date:

Thursday, February 13, 2014

  Actual Average (KIPT) Record (KIPT)
Temperature  
Mean Temperature 25 °F 29 °F  
Max Temperature 33 °F 37 °F 54 °F (1937)
Min Temperature 17 °F 21 °F -6 °F (1917)
Degree Days  
Heating Degree Days 40 36  
Month to date heating degree days 477  
Since 1 July heating degree days 3956  
Cooling Degree Days 0 0  
Month to date cooling degree days 0  
Year to date cooling degree days 0  
Moisture  
Dew Point 22 °F    
Average Humidity 85    
Maximum Humidity 93    
Minimum Humidity 72    
Precipitation  
Precipitation 0.51 in 0.08 in 2.72 in (1971)
Month to date precipitation 1.08  
Year to date precipitation 3.78  
Snow  
Snow 0.00 in 0.30 in 6.70 in (2014)
Month to date snowfall 4.1  
Since 1 July snowfall 23.3  
Snow Depth -    
Sea Level Pressure  
Sea Level Pressure 29.75 in    
Wind  
Wind Speed 8 mph (NNW)    
Max Wind Speed 21 mph    
Max Gust Speed 28 mph    
Visibility 2 miles    
Events Fog , Rain , Snow    
T = Trace of Precipitation, MM = Missing Value Source: NWS Daily Summary

Daily Weather History Graph

Daily Weather History Graph

Search for Another Location

Airport or City:

Trip Planner

Search our weather history database for the weather conditions in past years. The results will help you decide how hot, cold, wet, or windy it might be!

Date:

Astronomy

Feb. 13, 2014 Rise Set
Actual Time 7:04 AM EST 5:39 PM EST
Civil Twilight 6:35 AM EST 6:07 PM EST
Nautical Twilight 6:03 AM EST 6:40 PM EST
Astronomical Twilight 5:31 AM EST 7:12 PM EST
Moon 4:46 PM EST (2/13) 5:56 AM EST (2/13)
Length of Visible Light 11h 32m
Length of Day
10h 35m
Waxing Gibbous, 98% of the Moon is Illuminated
Feb 13
Waxing Gibbous
Feb 14
Full
Feb 22
Last Quarter
Mar 1
New
Mar 8
First Quarter

Hourly Weather History & Observations

Time (EST) Temp. Windchill Dew Point Humidity Pressure Visibility Wind Dir Wind Speed Gust Speed Precip Events Conditions
12:02 AM 17.1 °F 10.0 °F 12.0 °F 81% 30.25 in 1.8 mi NNW 4.6 mph - 0.00 in Snow Light Snow
12:43 AM 17.1 °F 10.0 °F 12.9 °F 84% 30.24 in 2.0 mi NNW 4.6 mph - 0.01 in Snow Light Snow
12:53 AM 17.1 °F 8.7 °F 12.9 °F 84% 30.26 in 2.0 mi NNW 5.8 mph - 0.01 in Snow Light Snow
1:29 AM 17.1 °F 8.7 °F 12.9 °F 84% 30.21 in 1.8 mi NNW 5.8 mph - 0.01 in Snow Light Snow
1:51 AM 17.6 °F 10.7 °F 14.0 °F 86% 30.19 in 1.0 mi NNW 4.6 mph - 0.02 in Snow Light Snow
1:53 AM 17.1 °F 10.0 °F 14.0 °F 88% 30.22 in 1.0 mi NNW 4.6 mph - 0.02 in Snow Light Snow
2:05 AM 17.1 °F 10.0 °F 14.0 °F 88% 30.18 in 1.2 mi NNW 4.6 mph - 0.00 in Snow Light Snow
2:37 AM 18.0 °F 8.7 °F 14.0 °F 84% 30.16 in 2.0 mi NNW 6.9 mph - 0.01 in Snow Light Snow
2:51 AM 17.6 °F 9.3 °F 14.0 °F 86% 30.16 in 2.0 mi NNW 5.8 mph - 0.01 in Snow Light Snow
2:53 AM 18.0 °F 8.7 °F 12.9 °F 81% 30.18 in 2.0 mi NNW 6.9 mph - 0.01 in Snow Light Snow
3:03 AM 18.0 °F 8.7 °F 12.9 °F 81% 30.15 in 1.8 mi NNW 6.9 mph - 0.00 in Snow Light Snow
3:53 AM 18.0 °F 8.7 °F 14.0 °F 84% 30.14 in 1.5 mi NNW 6.9 mph - 0.02 in Snow Light Snow
4:53 AM 18.0 °F 8.7 °F 14.0 °F 84% 30.09 in 2.0 mi North 6.9 mph - 0.02 in Snow Light Snow
5:12 AM 18.0 °F 11.1 °F 14.0 °F 84% 30.06 in 1.8 mi NNW 4.6 mph - 0.00 in Snow Light Snow
5:24 AM 19.0 °F 11.1 °F 14.0 °F 81% 30.04 in 2.5 mi North 5.8 mph - 0.00 in Snow Light Snow
5:46 AM 19.0 °F 11.1 °F 15.1 °F 85% 30.03 in 3.0 mi NNW 5.8 mph - 0.00 in Snow Light Snow
5:53 AM 19.0 °F 11.1 °F 15.1 °F 85% 30.04 in 4.0 mi NNW 5.8 mph - 0.00 in Snow Light Snow
6:10 AM 19.0 °F 11.1 °F 15.1 °F 85% 30.00 in 2.0 mi NNW 5.8 mph - 0.00 in Snow Light Snow
6:18 AM 19.0 °F 12.3 °F 15.1 °F 85% 30.00 in 1.8 mi NNW 4.6 mph - 0.01 in Snow Light Snow
6:29 AM 19.0 °F 12.3 °F 16.0 °F 88% 29.99 in 1.5 mi NNW 4.6 mph - 0.01 in Snow Light Snow
6:53 AM 19.9 °F 13.4 °F 16.0 °F 85% 30.00 in 1.5 mi NNW 4.6 mph - 0.02 in Snow Light Snow
7:27 AM 19.9 °F 13.4 °F 16.0 °F 85% 29.94 in 1.0 mi NNW 4.6 mph - 0.02 in Snow Light Snow
7:50 AM 19.4 °F 11.5 °F 17.6 °F 93% 29.93 in 1.2 mi NNW 5.8 mph - 0.04 in Snow Light Snow
7:53 AM 19.9 °F 12.1 °F 17.1 °F 89% 29.95 in 1.2 mi NNW 5.8 mph - 0.04 in Snow Light Snow
8:08 AM 21.0 °F 14.6 °F 17.1 °F 85% 29.91 in 1.0 mi NNW 4.6 mph - 0.01 in Snow Light Snow
8:17 AM 21.0 °F 13.4 °F 17.1 °F 85% 29.90 in 0.8 mi NNW 5.8 mph - 0.01 in Snow Light Snow
8:27 AM 21.0 °F 13.4 °F 17.1 °F 85% 29.90 in 1.0 mi NNW 5.8 mph - 0.02 in Snow Light Snow
8:34 AM 21.0 °F 13.4 °F 18.0 °F 88% 29.90 in 0.5 mi NNW 5.8 mph - 0.03 in Fog , Snow Snow
8:48 AM 21.2 °F 14.9 °F 17.6 °F 86% 29.89 in 0.5 mi NNW 4.6 mph - 0.04 in Fog , Snow Snow
8:53 AM 21.9 °F 14.5 °F 18.0 °F 85% 29.91 in 0.5 mi NNW 5.8 mph - 0.04 in Fog , Snow Snow
9:05 AM 21.9 °F 14.5 °F 19.0 °F 89% 29.88 in 0.5 mi NNW 5.8 mph - 0.01 in Fog , Snow Snow
9:27 AM 21.9 °F 12.5 °F 19.0 °F 89% 29.86 in 0.2 mi NNW 8.1 mph - 0.05 in Fog , Snow Heavy Snow
9:53 AM 23.0 °F 13.9 °F 19.9 °F 88% 29.86 in 0.5 mi NNW 8.1 mph - 0.08 in Fog , Snow Snow
10:23 AM 24.1 °F 15.2 °F 21.0 °F 88% 29.80 in 0.2 mi NNW 8.1 mph - 0.04 in Fog , Snow Heavy Snow
10:53 AM 26.1 °F 16.8 °F 23.0 °F 88% 29.80 in 0.5 mi North 9.2 mph - 0.09 in Fog , Snow Snow
11:50 AM 28.4 °F 20.4 °F 24.8 °F 86% 29.74 in 0.8 mi NNE 8.1 mph - 0.08 in Snow Light Snow
11:53 AM 28.0 °F 20.8 °F 25.0 °F 88% 29.75 in 0.8 mi North 6.9 mph - 0.08 in Snow Light Snow
12:31 PM 30.0 °F 21.1 °F 26.1 °F 85% 29.68 in 1.0 mi North 10.4 mph - 0.03 in Snow Light Snow
12:40 PM 30.0 °F 22.4 °F 26.1 °F 85% 29.67 in 1.2 mi North 8.1 mph - 0.03 in Snow Light Snow
12:53 PM 30.0 °F 20.0 °F 26.1 °F 85% 29.68 in 1.5 mi North 12.7 mph - 0.03 in Snow Light Snow
1:22 PM 30.9 °F 20.7 °F 27.0 °F 85% 29.62 in 3.0 mi North 13.8 mph - 0.01 in Snow Light Snow
1:53 PM 32.0 °F 23.0 °F 28.0 °F 85% 29.60 in 3.0 mi North 11.5 mph - 0.02 in Snow Light Snow
2:36 PM 32.0 °F 22.1 °F 28.0 °F 85% 29.53 in 1.2 mi North 13.8 mph 21.9 mph 0.00 in Snow Light Snow
2:53 PM 33.1 °F 22.2 °F 28.0 °F 82% 29.53 in 1.2 mi North 17.3 mph 23.0 mph 0.00 in Snow Light Snow
3:05 PM 33.1 °F 23.0 °F 28.9 °F 85% 29.50 in 1.0 mi North 15.0 mph 25.3 mph 0.01 in Snow Light Snow
3:10 PM 33.1 °F 23.4 °F 28.9 °F 85% 29.51 in 1.2 mi North 13.8 mph - 0.01 in Snow Light Snow
3:44 PM 33.1 °F 22.2 °F 28.9 °F 85% 29.49 in 2.5 mi North 17.3 mph 23.0 mph 0.01 in Snow Light Snow
3:53 PM 33.1 °F 22.2 °F 28.9 °F 85% 29.49 in 3.0 mi North 17.3 mph - 0.01 in Snow Light Snow
4:15 PM 33.1 °F 22.2 °F 28.9 °F 85% 29.46 in 5.0 mi North 17.3 mph 23.0 mph 0.00 in Rain Light Rain
4:53 PM 33.1 °F 22.6 °F 28.9 °F 85% 29.47 in 8.0 mi North 16.1 mph 26.5 mph 0.00 in Rain Light Rain
5:16 PM 33.1 °F 22.6 °F 30.0 °F 89% 29.44 in 4.0 mi North 16.1 mph 21.9 mph 0.00 in Rain Light Freezing Rain
5:53 PM 33.1 °F 22.6 °F 30.0 °F 89% 29.43 in 5.0 mi NNW 16.1 mph 25.3 mph 0.00 in Rain Light Freezing Rain
6:02 PM 33.1 °F 21.9 °F 28.9 °F 85% 29.41 in 5.0 mi North 18.4 mph - 0.00 in Rain Light Freezing Rain
6:10 PM 33.1 °F 22.2 °F 28.9 °F 85% 29.41 in 5.0 mi North 17.3 mph 27.6 mph 0.00 in Snow Light Snow
6:33 PM 32.0 °F 19.8 °F 28.0 °F 85% 29.39 in 4.0 mi North 20.7 mph - 0.00 in Snow Light Snow
6:53 PM 32.0 °F 22.5 °F 28.0 °F 85% 29.41 in 4.0 mi North 12.7 mph 23.0 mph 0.00 in Snow Light Snow
7:16 PM 32.0 °F 21.2 °F 28.0 °F 85% 29.38 in 4.0 mi NNW 16.1 mph 23.0 mph 0.00 in Snow Light Snow
7:53 PM 32.0 °F 23.0 °F 28.0 °F 85% 29.40 in 5.0 mi North 11.5 mph - 0.00 in Snow Light Snow
8:39 PM 32.0 °F 23.6 °F 28.0 °F 85% 29.37 in 3.0 mi NNW 10.4 mph - 0.01 in Snow Light Snow
8:53 PM 32.0 °F 23.6 °F 28.0 °F 85% 29.38 in 3.0 mi NNW 10.4 mph - 0.01 in Snow Light Snow
9:25 PM 32.0 °F 22.5 °F 26.1 °F 79% 29.37 in 4.0 mi North 12.7 mph - 0.00 in Snow Light Snow
9:53 PM 30.9 °F 22.8 °F 26.1 °F 82% 29.39 in 2.5 mi North 9.2 mph - 0.00 in Snow Light Snow
10:12 PM 30.9 °F 22.8 °F 25.0 °F 79% 29.36 in 3.0 mi NNW 9.2 mph - 0.00 in Snow Light Snow
10:29 PM 30.9 °F 24.3 °F 26.1 °F 82% 29.35 in 3.0 mi Variable 6.9 mph - 0.01 in Snow Light Snow
10:35 PM 30.9 °F 22.2 °F 26.1 °F 82% 29.34 in 2.5 mi NW 10.4 mph - 0.01 in Snow Light Snow
10:51 PM 30.2 °F 21.3 °F 26.6 °F 86% 29.33 in 2.5 mi NNW 10.4 mph - 0.01 in Snow Light Snow
10:53 PM 30.9 °F 22.8 °F 27.0 °F 85% 29.35 in 2.5 mi NW 9.2 mph - 0.01 in Snow Light Snow
11:08 PM 30.9 °F 20.7 °F 27.0 °F 85% 29.32 in 3.0 mi NW 13.8 mph - 0.00 in Snow Light Snow
11:53 PM 33.1 °F 24.9 °F 25.0 °F 72% 29.34 in 10.0 mi NW 10.4 mph 19.6 mph 0.00 in   Overcast